Погода в Богушевичах

Беларусь     53°42′43″N   28°49′24″E
темп.,
°C
ветер,
м/с
пор.,
м/с
влажн.,
%
обл.,
%
осадки,
мм/ч
давл.,
гПа
погр.,
м
17 мая, пн
пн1700:00+13юв4990100 0.1 1009182
03:00+12юв4996100 0.9 1009186
06:00+12вюв2696100 1.2 1007123
09:00+16юв3683100 1.2 1007359
12:00+16ссв2287100 0.6 1005205
15:00+14зсз4695100 2.4 1004362
18:00+13сз51094100 0.7 1003377
21:00+13с41193100 0.8 1003358
18 мая, вт
вт1800:00+13с3798100 0.6 1002262
03:00+12сз129992 1.1 100181
06:00+13ссз2499100 0.2 1000142
09:00+13ю1198100 1.1 100199
12:00+16ююв4691100 0.3 1002620
15:00+17ю3481100 0.6 1002764
18:00+17ююв2379100 0.2 1001627
21:00+14вюв1192100 0.7 100111
19 мая, ср
ср1900:00+13вюв009350 0.1 100110
03:00+12ссв119550 0.2 100212
06:00+12в1197100 1.1 100236
09:00+14юв1296100 4.1 1003258
12:00+15ююв249197 0.9 1003513
15:00+17ю458180 3.6 1003767
18:00+16сз568888 2.0 1004527
21:00+12ссз5996100 2.1 1006343
20 мая, чт
чт2000:00+12ссз5998100 0.5 1005439
03:00+12с5999100 1.6 1003385
06:00+13ссв3899100 5.1 1001467
09:00+12вюв2598100 10.8 1001252
12:00+17юв3472100 0.1 10001086
15:00+17юв2373100 2.1 999817
18:00+14зсз4489100 3.1 999477
21:00+10зсз61195100 4.3 1000592
21 мая, пт
пт2100:00+9з61193100 0.0 1000950
03:00+8з91592100 0.6 10021210
06:00+6з91694100 3.1 10041162
09:00+7з101791100 6.2 10061096
12:00+11з101579100 0.2 10081325
15:00+13з91266100 0.3 10111787
18:00+11з8107191 0.1 10121267
21:00+8зюз5117237 0.1 1014454